Location: Newark
(35.8833°N, 14.5000°E)
Time: 11:00:24
(UTC+00:00)

Altair - Pass Details

Date: 22 November 2019
Orbit: 1502 x 1682 km, 47.2° (Epoch: 10 December)

Event Time Altitude Azimuth Distance (km) Brightness Sun altitude
Rises 04:52:03 0° 293° (WNW) 4,634 - -10.8°
Reaches altitude 10° 04:55:18 10° 300° (WNW) 3,654 - -10.2°
Exits shadow 04:55:30 11° 301° (WNW) 3,598 8.8 -10.1°
Maximum altitude 05:03:59 44° 11° (NNE) 1,998 8.1 -8.5°
Drops below altitude 10° 05:12:50 10° 82° (E) 3,730 10.7 -6.8°
Sets 05:16:10 0° 89° (E) 4,738 11.6 -6.2°
